Lid_Strength_Index
17 16 16 17 17 16 17 16 16 16 16 16 16 16 16 16 16 16 16 16 16 16
17 17 17 17 17 16 17 17 16 17 17 17 17 16 16 16 16 16 16 16 16 16
17 17 17 17 17 17 17 17 17 17 17 17 17 16 17 17 16 16 16 16 16 16
17 17 17 17 17 17 17 17 17 17 17 17 17 17 17 17 17 17 17 16 16 16
18 18 18 18 18 17 18 17 18 18 18 17 17 17 17 17 17 17 17 17 17 17
18 18 18 18 18 18 18 18 17 18 18 18 17 17 17 17 17 17 17 17 17 17
18 18 18 18 18 18 18 18 18 17 17 17 17 17 17 17 17 16 16 15 15 15
18 18 18 18 18 17 17 17 17 17 16 16 16 16 15 15 15 14 14 13 13 12
18 18 18 18 17 16 16 15 15 15 15 15 15 13 12 12 13 13 13 13 12 11
20 19 18 17 16 15 15 14 15 14 14 14 14 12 11 11 12 12 12 12 11 11
20 20 17 17 16 15 14 14 14 14 13 14 13 11 11 10 11 11 11 11 10 10
19 20 18 18 17 15 14 14 14 13 13 13 13 11 10 10 11 11 11 10 10 10
18 18 19 18 17 16 15 14 14 14 13 12 13 11 10 10 11 11 11 10 10 8
17 18 18 18 17 17 16 15 15 15 14 13 13 13 10 9 11 11 11 10 10 8